[[{"header":{"parameterUnit":"m.s-1","parameterCategory":1,"la1":30.2991,"la2":30.254,"lo1":-89.0895,"lo2":-89.0444,"dy":0.0017,"dx":0.0017,"nx":28,"ny":28,"refTime":"2023-04-20T21:00:00:Z","depth":0,"parameterNumber":2,"parameterNumberName":"U-component_of_WINDS"},"data":[0,0,0,0,0,0,0,0,0,0,0,0,0,0,0,0,0,0,0,0,0,0,0,0,0,0,0,0,0,0,0,0,0,0,0,0,0,0,0,0,0,0,0,0,0,0,0,0,0,0,0,0,0,0,0,0,0,0,-1.7677,-1.7676,0,-1.7622,-1.7621,-1.7621,-1.7585,-1.7584,-1.7584,-1.7584,-1.7526,-1.7525,-1.7524,0,0,0,0,0,0,0,0,0,0,0,0,0,-1.7747,-1.7746,-1.7677,-1.7676,-1.7675,-1.7622,-1.7621,-1.7621,-1.7585,-1.7584,-1.7584,-1.7584,-1.7527,-1.7525,-1.7524,0,0,0,0,0,0,0,0,0,0,0,0,0,-1.7707,-1.7746,-1.7677,-1.7651,-1.7648,-1.7622,-1.7621,-1.762,-1.7585,-1.7584,-1.7584,-1.7584,-1.7527,-1.7525,-1.7523,-1.7518,0,0,-1.7517,-1.7517,0,0,0,0,0,0,0,0,-1.7709,-1.7704,-1.7655,-1.7653,-1.7649,-1.761,-1.7625,-1.7586,-1.7585,-1.7609,-1.7584,-1.7583,-1.7554,-1.755,-1.7541,-1.7516,-1.7513,-1.7517,-1.7516,-1.7515,-1.7515,0,0,0,0,0,0,0,-1.7712,-1.7707,-1.7655,-1.7655,-1.7651,-1.7641,-1.7635,-1.7618,-1.7584,-1.7607,-1.7604,-1.7598,-1.7553,-1.7543,-1.7539,-1.7512,-1.7517,-1.7516,-1.7514,-1.7514,-1.748,-1.748,0,0,0,0,0,0,-1.7719,-1.7709,-1.7657,-1.7653,-1.7679,-1.764,-1.7633,-1.7623,-1.7584,-1.7578,-1.7598,-1.7597,-1.7546,-1.7541,-1.7537,-1.7528,-1.7515,-1.7513,-1.7512,-1.7479,-1.748,-1.748,0,0,0,0,0,0,-1.7721,-1.7715,-1.7659,-1.768,-1.7673,-1.764,-1.7628,-1.7622,-1.7612,-1.7578,-1.7572,-1.7594,-1.7546,-1.754,-1.7523,-1.7525,-1.7513,-1.7511,-1.7479,-1.7479,-1.748,-1.7511,0,0,0,0,0,0,-1.7723,-1.7716,-1.7714,-1.7681,-1.7672,-1.7647,-1.7628,-1.7621,-1.7609,-1.7606,-1.7573,-1.7567,-1.7545,-1.7526,-1.7521,-1.7522,-1.7509,-1.7479,-1.7479,-1.748,-1.7509,-1.7512,-1.7514,0,0,0,0,0,-1.7726,-1.7725,-1.7714,-1.7708,-1.7669,-1.7647,-1.7642,-1.7617,-1.7609,-1.7607,-1.7585,-1.7568,-1.7526,-1.7525,-1.7519,-1.752,-1.7478,-1.7479,-1.748,-1.7508,-1.7511,-1.7514,0,0,0,0,0,0,-1.7759,-1.772,-1.7708,-1.7696,-1.7676,-1.7641,-1.7638,-1.7622,-1.7602,-1.76,-1.757,-1.7563,-1.7549,-1.7533,-1.7532,-1.7512,-1.75,-1.75,-1.7524,-1.7527,-1.7529,-1.7533,-1.7508,0,0,0,0,0,-1.7765,-1.7752,-1.7718,-1.7711,-1.7701,-1.7671,-1.7661,-1.7644,-1.762,-1.7611,-1.7588,-1.7566,-1.7547,-1.7536,-1.7517,-1.7506,-1.7498,-1.7504,-1.7506,-1.7509,-1.7509,-1.7501,-1.7503,-1.7482,-1.7482,-1.7482,0,0,-1.7777,-1.7754,-1.7748,-1.7717,-1.7699,-1.7684,-1.7664,-1.765,-1.7639,-1.7609,-1.7592,-1.7574,-1.7547,-1.7533,-1.7526,-1.7519,-1.7512,-1.7509,-1.7512,-1.751,-1.7501,-1.7503,-1.7505,-1.7482,-1.7482,-1.7482,0,0,-1.7792,-1.7774,-1.7766,-1.7748,-1.7721,-1.7701,-1.7699,-1.7667,-1.7654,-1.7637,-1.7614,-1.7599,-1.7569,-1.755,-1.7537,-1.7544,-1.7527,-1.7539,-1.7552,-1.7545,-1.7546,-1.7548,-1.755,-1.7551,-1.7539,-1.7539,-1.7539,0,-1.7811,-1.7789,-1.7763,-1.7751,-1.7737,-1.771,-1.7701,-1.7684,-1.7652,-1.7643,-1.7636,-1.7597,-1.7576,-1.7558,-1.7559,-1.7549,-1.7546,-1.7542,-1.7548,-1.7549,-1.755,-1.7552,-1.7553,-1.754,-1.754,-1.754,-1.754,0,-1.7813,-1.7798,-1.7795,-1.7765,-1.7751,-1.774,-1.7712,-1.7701,-1.7685,-1.7665,-1.7647,-1.7622,-1.7598,-1.7592,-1.7576,-1.757,-1.7567,-1.7554,-1.7541,-1.7554,-1.7555,-1.7555,-1.7542,-1.7542,-1.7541,-1.7541,0,0,-1.7848,-1.7804,-1.7803,-1.7789,-1.7756,-1.7744,-1.7731,-1.7707,-1.7698,-1.7677,-1.7665,-1.7639,-1.7627,-1.7612,-1.7593,-1.7587,-1.7593,-1.7575,-1.7574,-1.7579,-1.7585,-1.7595,-1.7596,-1.7582,-1.7582,-1.7582,-1.7587,0,-1.7858,-1.7835,-1.7811,-1.7796,-1.7781,-1.7754,-1.7743,-1.7722,-1.7703,-1.7687,-1.7666,-1.7648,-1.7634,-1.7625,-1.7617,-1.7594,-1.7594,-1.7594,-1.757,-1.7569,-1.7578,-1.7596,-1.7606,-1.7612,-1.7587,-1.7588,-1.7588,0,-1.7867,-1.7847,-1.7831,-1.7799,-1.7792,-1.7782,-1.7758,-1.7744,-1.7718,-1.7705,-1.7688,-1.7668,-1.7652,-1.7641,-1.7618,-1.7619,-1.7607,-1.7595,-1.7594,-1.7591,-1.7579,-1.7593,-1.7614,-1.7615,-1.7588,-1.7588,-1.7588,0,-1.7894,-1.7863,-1.7849,-1.7837,-1.78,-1.7794,-1.7778,-1.7752,-1.7739,-1.7718,-1.7709,-1.7686,-1.7673,-1.7655,-1.7629,-1.7624,-1.7609,-1.7596,-1.7597,-1.7598,-1.7595,-1.7596,-1.7614,-1.7588,-1.7588,-1.7588,-1.7588,0,-1.7907,-1.7898,-1.786,-1.7852,-1.784,-1.7812,-1.7801,-1.7783,-1.776,-1.7746,-1.7722,-1.7709,-1.7676,-1.7659,-1.7639,-1.7623,-1.7617,-1.7605,-1.76,-1.7608,-1.7609,-1.76,-1.7599,-1.7589,-1.7589,-1.7589,-1.7588,0,-1.7936,-1.791,-1.7893,-1.7859,-1.785,-1.7843,-1.7813,-1.7803,-1.7783,-1.7766,-1.7761,-1.7728,-1.7708,-1.768,-1.765,-1.7636,-1.7623,-1.7614,-1.7632,-1.7628,-1.7631,-1.7631,-1.7644,-1.7644,-1.7619,-1.7619,-1.7619,0,-1.7946,-1.7938,-1.7904,-1.7893,-1.7878,-1.7862,-1.7848,-1.782,-1.7807,-1.7776,-1.777,-1.7747,-1.7728,-1.7695,-1.7669,-1.7646,-1.7636,-1.7642,-1.7633,-1.764,-1.7636,-1.7637,-1.7635,-1.7645,-1.7645,-1.7646,-1.7646,0,-1.7967,-1.7955,-1.7937,-1.7914,-1.7899,-1.788,-1.7859,-1.7852,-1.7819,-1.7805,-1.7784,-1.7768,-1.7738,-1.7716,-1.7689,-1.7671,-1.7653,-1.7649,-1.7648,-1.7656,-1.7666,-1.766,-1.7638,-1.7649,-1.7649,-1.7649,-1.7648,-1.7648,-1.7986,-1.7978,-1.7952,-1.7933,-1.7914,-1.7896,-1.7884,-1.7863,-1.7845,-1.7818,-1.7802,-1.7781,-1.7754,-1.7717,-1.77,-1.7682,-1.7675,-1.7674,-1.7673,-1.7673,-1.7676,-1.7669,-1.7677,-1.7677,-1.7677,-1.7677,-1.7677,0,-1.8006,-1.7988,-1.797,-1.7942,-1.7927,-1.7911,-1.7887,-1.7875,-1.7857,-1.7834,-1.7816,-1.779,-1.7768,-1.774,-1.7715,-1.7707,-1.7698,-1.7701,-1.7701,-1.7698,-1.7684,-1.7687,-1.7709,-1.7709,-1.7709,-1.7709,-1.7709,-1.7709,-1.8014,-1.7999,-1.7983,-1.7959,-1.794,-1.792,-1.7908,-1.789,-1.7871,-1.7844,-1.7826,-1.7808,-1.7782,-1.7755,-1.7734,-1.7726,-1.7718,-1.7724,-1.7714,-1.7701,-1.7699,-1.7696,-1.7699,-1.7723,-1.7723,-1.7729,-1.7729,-1.7729]},{"header":{"parameterUnit":"m.s-1","parameterCategory":1,"la1":30.2991,"la2":30.254,"lo1":-89.0895,"lo2":-89.0444,"dy":0.0017,"dx":0.0017,"nx":28,"ny":28,"refTime":"2023-04-20T21:00:00:Z","depth":0,"parameterNumber":3,"parameterNumberName":"V-component_of_WINDS"},"data":[0,0,0,0,0,0,0,0,0,0,0,0,0,0,0,0,0,0,0,0,0,0,0,0,0,0,0,0,0,0,0,0,0,0,0,0,0,0,0,0,0,0,0,0,0,0,0,0,0,0,0,0,0,0,0,0,0,0,-4.3929,-4.3929,0,-4.3944,-4.3944,-4.3944,-4.3943,-4.3943,-4.3943,-4.3942,-4.3954,-4.3955,-4.3955,0,0,0,0,0,0,0,0,0,0,0,0,0,-4.3895,-4.3896,-4.3929,-4.3929,-4.3929,-4.3944,-4.3944,-4.3944,-4.3943,-4.3943,-4.3942,-4.3942,-4.3954,-4.3955,-4.3955,0,0,0,0,0,0,0,0,0,0,0,0,0,-4.391,-4.3896,-4.3929,-4.393,-4.3931,-4.3944,-4.3944,-4.3945,-4.3943,-4.3943,-4.3942,-4.3942,-4.3954,-4.3955,-4.3955,-4.3967,0,0,-4.3958,-4.3958,0,0,0,0,0,0,0,0,-4.3909,-4.3911,-4.393,-4.393,-4.393,-4.3941,-4.3937,-4.3952,-4.3943,-4.3938,-4.3942,-4.3942,-4.395,-4.3951,-4.3955,-4.3968,-4.3968,-4.3958,-4.3958,-4.3959,-4.3959,0,0,0,0,0,0,0,-4.3908,-4.391,-4.3935,-4.393,-4.393,-4.3929,-4.3931,-4.394,-4.3946,-4.3939,-4.3939,-4.3941,-4.395,-4.3954,-4.3955,-4.3968,-4.3958,-4.3959,-4.3959,-4.3959,-4.3993,-4.3994,0,0,0,0,0,0,-4.3907,-4.391,-4.3934,-4.3935,-4.3919,-4.393,-4.3932,-4.3938,-4.3946,-4.3946,-4.3941,-4.3941,-4.3953,-4.3954,-4.3955,-4.3971,-4.3959,-4.3959,-4.396,-4.3993,-4.3994,-4.3994,0,0,0,0,0,0,-4.3906,-4.3909,-4.3933,-4.3922,-4.3925,-4.3931,-4.3938,-4.3939,-4.3942,-4.3947,-4.3948,-4.3944,-4.3952,-4.3954,-4.3965,-4.3971,-4.396,-4.396,-4.3992,-4.3993,-4.3994,-4.4001,0,0,0,0,0,0,-4.3905,-4.3909,-4.3914,-4.3923,-4.3926,-4.3944,-4.3938,-4.3939,-4.3944,-4.3944,-4.395,-4.3951,-4.3952,-4.3964,-4.3966,-4.3972,-4.3961,-4.3992,-4.3993,-4.3994,-4.4,-4.4002,-4.4003,0,0,0,0,0,-4.3904,-4.3914,-4.3914,-4.3917,-4.3933,-4.3944,-4.3946,-4.3948,-4.3945,-4.395,-4.3953,-4.3951,-4.397,-4.3965,-4.3967,-4.3974,-4.3992,-4.3993,-4.3993,-4.3999,-4.4001,-4.4003,0,0,0,0,0,0,-4.3904,-4.3915,-4.3915,-4.3928,-4.3936,-4.3944,-4.395,-4.395,-4.3957,-4.3956,-4.3957,-4.3959,-4.397,-4.3973,-4.3967,-4.3986,-4.398,-4.3982,-4.3984,-4.3986,-4.3987,-4.3986,-4.3962,0,0,0,0,0,-4.3906,-4.3915,-4.3924,-4.3934,-4.3938,-4.3944,-4.3948,-4.395,-4.3957,-4.3959,-4.3963,-4.3969,-4.3977,-4.3981,-4.3988,-4.4001,-4.4002,-4.4006,-4.4008,-4.4009,-4.401,-4.4018,-4.402,-4.3997,-4.3997,-4.3997,0,0,-4.3908,-4.3916,-4.3921,-4.3935,-4.394,-4.395,-4.3946,-4.3955,-4.3962,-4.396,-4.3971,-4.3975,-4.3981,-4.3993,-4.3999,-4.3996,-4.4017,-4.401,-4.4011,-4.4012,-4.4019,-4.4022,-4.4024,-4.3998,-4.3998,-4.3998,0,0,-4.3919,-4.3925,-4.3936,-4.3942,-4.3952,-4.3956,-4.3958,-4.3967,-4.397,-4.3982,-4.3981,-4.3989,-4.4001,-4.4006,-4.401,-4.4026,-4.4024,-4.4028,-4.4035,-4.4043,-4.4045,-4.4047,-4.4053,-4.4055,-4.4029,-4.4029,-4.4029,0,-4.3921,-4.3936,-4.3941,-4.3951,-4.3958,-4.3959,-4.3969,-4.3975,-4.3985,-4.3989,-4.3986,-4.4004,-4.4008,-4.4022,-4.4026,-4.4029,-4.4032,-4.4027,-4.4045,-4.4046,-4.4048,-4.4054,-4.4056,-4.4029,-4.4029,-4.4029,-4.4029,0,-4.3939,-4.3949,-4.3957,-4.397,-4.3977,-4.3987,-4.3993,-4.3999,-4.4,-4.4004,-4.4017,-4.4022,-4.4031,-4.4035,-4.4035,-4.4049,-4.4047,-4.4044,-4.4039,-4.4051,-4.4056,-4.4059,-4.403,-4.403,-4.403,-4.403,0,0,-4.3947,-4.3965,-4.3968,-4.3975,-4.3987,-4.3994,-4.4005,-4.4016,-4.4022,-4.4029,-4.4038,-4.405,-4.4048,-4.4053,-4.4054,-4.4061,-4.4074,-4.4058,-4.4058,-4.4061,-4.4091,-4.4094,-4.4097,-4.4074,-4.4074,-4.4074,-4.4091,0,-4.396,-4.3981,-4.3987,-4.4004,-4.4015,-4.4017,-4.4026,-4.4034,-4.4039,-4.4047,-4.4052,-4.4061,-4.4057,-4.406,-4.4067,-4.4071,-4.4081,-4.407,-4.4082,-4.4082,-4.4081,-4.4099,-4.4102,-4.4117,-4.4093,-4.4094,-4.4094,0,-4.3976,-4.3988,-4.4007,-4.402,-4.4024,-4.4033,-4.4044,-4.4053,-4.4062,-4.4065,-4.4072,-4.4073,-4.4084,-4.4078,-4.4093,-4.4086,-4.4091,-4.4094,-4.4095,-4.4096,-4.4089,-4.4102,-4.4122,-4.4125,-4.4097,-4.4097,-4.4097,0,-4.3982,-4.4002,-4.4017,-4.4022,-4.4037,-4.4043,-4.4049,-4.4059,-4.4065,-4.4075,-4.4079,-4.4089,-4.4094,-4.4102,-4.4106,-4.4101,-4.4121,-4.4115,-4.4123,-4.4123,-4.4127,-4.4127,-4.4149,-4.413,-4.413,-4.413,-4.413,0,-4.3996,-4.4007,-4.402,-4.4029,-4.4042,-4.4049,-4.4062,-4.4068,-4.4076,-4.4086,-4.4088,-4.4096,-4.4101,-4.411,-4.4113,-4.4126,-4.4128,-4.413,-4.4131,-4.413,-4.413,-4.4134,-4.4133,-4.413,-4.413,-4.413,-4.413,0,-4.4004,-4.4013,-4.4029,-4.4043,-4.4047,-4.4057,-4.4068,-4.4077,-4.4082,-4.4094,-4.4098,-4.4106,-4.4117,-4.4122,-4.4135,-4.4137,-4.4152,-4.4151,-4.4149,-4.415,-4.4158,-4.4158,-4.4184,-4.4188,-4.4165,-4.4165,-4.4166,0,-4.4012,-4.4022,-4.4038,-4.4046,-4.4053,-4.4065,-4.4073,-4.408,-4.4088,-4.4101,-4.4108,-4.412,-4.413,-4.4148,-4.4154,-4.4164,-4.4164,-4.4173,-4.4165,-4.4165,-4.4165,-4.4165,-4.4166,-4.4174,-4.4174,-4.4174,-4.4174,0,-4.4026,-4.403,-4.4043,-4.4058,-4.4068,-4.4079,-4.4089,-4.4095,-4.4104,-4.4113,-4.4126,-4.4134,-4.4149,-4.4161,-4.4172,-4.4177,-4.4177,-4.4177,-4.418,-4.4179,-4.4178,-4.418,-4.4153,-4.4176,-4.4176,-4.4176,-4.4176,-4.4176,-4.4034,-4.4044,-4.4058,-4.4072,-4.4082,-4.4093,-4.4103,-4.4111,-4.4122,-4.4137,-4.4139,-4.4153,-4.4164,-4.4179,-4.4185,-4.4195,-4.4193,-4.4197,-4.4198,-4.4199,-4.42,-4.4177,-4.4197,-4.4197,-4.4197,-4.4197,-4.4197,0,-4.4049,-4.4059,-4.4072,-4.4089,-4.4101,-4.4102,-4.4115,-4.4124,-4.4137,-4.4148,-4.4159,-4.4174,-4.4186,-4.4194,-4.4206,-4.4213,-4.4214,-4.4216,-4.4216,-4.4217,-4.4201,-4.4198,-4.4216,-4.4216,-4.4216,-4.4216,-4.4216,-4.4216,-4.4058,-4.4075,-4.4082,-4.4104,-4.4113,-4.4129,-4.4136,-4.4146,-4.4155,-4.4173,-4.4185,-4.4191,-4.42,-4.4214,-4.4225,-4.4227,-4.4231,-4.4234,-4.4236,-4.422,-4.4218,-4.4216,-4.4214,-4.4235,-4.4235,-4.4252,-4.4252,-4.4252]}]]